STARLINK-11178, 62465

Orbit data source: Space-Track

STARLINK-11178, 62465 is a payload satellite owned by SpaceX/Seattle (US) in LEO that was launched on Tue, 31 Dec 2024 UTC via an FALCON 9 launch vehicle from the Air Force Eastern Test Range (AFETR). Payload-class satellites include a variety of spacecraft equipped with specific instruments for various scientific and technological missions. These include communications satellites like Starlink; space stations such as the ISS; scientific satellites like the Hubble; Earth observation satellites from companies like Planet Labs, Umbra, and HawkEye 360; GPS; miniature CubeSats for education and research; and military/defense satellites.

Loading next visibility...
Identifier
62465, 2024-254D
Orbit
LEO
Country
Flag of USUS
Related business
Manufacturer
SpaceX/Seattle
Mission
Operational Commercial Communications
Bus & Motor
STARLINK V2MD, Unknown motor
Mass
960 kg wet, ~910 kg dry
Launch date (UTC)
2024-12-31 (1 year ago)
Launch vehicle
FALCON 9
Launch site
Air Force Eastern Test Range (AFETR)
Object type
Payload
Rocket body
Debris
Shape & HBR
Box + 2 Pan, 18.1 m
Radar Cross Section
36.964 m², Large (>1 m²)

Expand to show TLE details & history
Last TLE update: 2 days ago

TLE from 2 days ago
0 STARLINK-11178
1 62465U 24254D   26124.61176128  .00266235  00000-0  20089-2 0  9992
2 62465  42.9997 246.1403 0001233 254.7015 105.3716 15.70882961 78036
Epoch: 2026-05-04T14:40Z
TLE epoch observation values (Epoch: 2026-05-04T14:40:56.174Z)
Latitude
-0.00005°
Longitude
163.40772°
Altitude
356.364 km
Speed
7.697 km/s
True Right ascension
16h 24m 33s
True Declination
0° 00' 00"
Sunlit
Object was in full shadow at epoch
Visualization orbit readout
Latitude
Unknown
Longitude
Unknown
Altitude
Unknown
Speed
Unknown
Apparent Right ascension
Unknown
Apparent Declination
Unknown
Sunlit
N/A
Visualization observer readout
Local Sidereal Time
14:23:22
Azimuth
Unknown
Elevation
Unknown
Doppler factor
Unknown
Orbital elements
Apogee altitude
359.185 km
Perigee altitude
357.523 km
Semi-major axis
6,736.491 km
Eccentricity
0.00012
Inclination
42.9997°
RAAN
246.1403°
Arg. of periapsis
254.7015°
True anomaly
105.38522°
Mean anomaly
105.3716°
Eccentric anomaly
105.37841°
Mean motion
3.92548 °/min
Orbital period
91.71 mins
BSTAR
0.0020089
Loading maneuver chart data...
Computing Atmospheric mass density...
Loading historical data...
Loading historical data...
Loading historical data...
Loading historical data...
Loading historical data...
Loading historical data...
Loading historical data...

Documentation

Showing up to 5 results
|